Regional Weather Roundup
Issued by NWS

Home | Current Version | Previous Version | Text Only | Print | Product List | Glossary Off
Versions: 1 2 3 4 5 6 7 8 9 10 11 12 13 14 15 16 17 18 19 20 21 22 23 24 25 26 27 28 29 30 31 32 33 34 35 36 37 38 39 40 41 42 43 44 45 46 47 48 49 50

000
ASUS43 KLOT 060700
RWRIL

ILLINOIS REGIONAL WEATHER ROUNDUP
NATIONAL WEATHER SERVICE CHICAGO/ROMEOVILLE IL
200 AM CDT MON JUL 06 2015

NOTE: "FAIR" INDICATES FEW OR NO CLOUDS BELOW 12,000 FEET WITH NO
SIGNIFICANT WEATHER AND/OR OBSTRUCTIONS TO VISIBILITY.

* THESE STATIONS ARE NOT UNDER NWS QUALITY CONTROL. THEY ALSO MAY NOT
  REPORT WEATHER SUCH AS PRECIPITATION OR FOG.

ILZ001-002-007-009-015-016-024-060800-
NORTHWEST ILLINOIS

CITY           SKY/WX    TMP DP  RH WIND       PRES   REMARKS
MOLINE         CLEAR     69  65  86 VRB3      29.95F FOG
STERLING*      CLEAR     68  64  88 S3        29.98S
$$

ILZ003-004-008-010-011-017-018-060800-
NORTH CENTRAL ILLINOIS

CITY           SKY/WX    TMP DP  RH WIND       PRES   REMARKS
ROCKFORD       PTCLDY    66  62  87 S7        30.00S
$$

ILZ005-006-012>014-019>023-060800-
NORTHEAST ILLINOIS

CITY           SKY/WX    TMP DP  RH WIND       PRES   REMARKS
CHICAGO-OHARE  CLEAR     69  62  78 S7        29.99S
CHICAGO-MIDWAY CLEAR     74  63  68 S6        30.00S
AURORA         CLEAR     68  61  78 S3        30.01R HAZE
LANSING*       CLEAR     65  60  82 S3        30.01F
WAUKEGAN       CLEAR     62  60  93 SW3       30.00R
DUPAGE AIRPORT CLEAR     66  62  87 S6        30.00R
WHEELING       CLEAR     67  60  78 S3        30.01S
NORTHERLY ISL    N/A     72  61  68 S6          N/A
$$

LMZ740>746-060800-
SOUTHERN LAKE MICHIGAN

STATION/POSITION SKY/WX   TEMP    WIND        PRES    VSBY  WAVE
                          AIR SEA DIR/SP/G                  HT/PER
                          (F)     (DEG/KT/KT) (MB)    (MI)  (FT/S)
HARRISON CRIB              72     180/ 11/ 13   N/A
BURNHAM HARBOR             72     190/  6/  8   N/A
CALUMET HARBOR             72     180/  5/  6   N/A
BURNS HARBOR               71     190/  7/ 10 1017.3R
MICHIGAN CITY              72     140/  8/ 11   N/A
MICHIGAN CITY 6N           69 67  180/  6/  8   N/A           0
ST. JOSEPH                 69 67                N/A           1
$$

ILZ025>027-034>036-040-047-049-050-058-095>099-060800-
WEST-CENTRAL ILLINOIS

CITY           SKY/WX    TMP DP  RH WIND       PRES   REMARKS
QUINCY         CLEAR     72  68  87 S8        29.96F FOG
MACOMB*        CLEAR     68  67  96 S3        29.99F FOG
$$

ILZ028>032-037-038-041>044-048-051>054-059>061-060800-
CENTRAL ILLINOIS

CITY           SKY/WX    TMP DP  RH WIND       PRES   REMARKS
DECATUR        CLEAR     69  64  84 S6        30.02S
PEORIA         CLEAR     72  64  76 S7        30.00S
SPRINGFIELD    CLEAR     73  65  75 S10       30.00F
TAYLORVILLE    NOT AVBL
$$

ILZ033-039-045-046-055>057-062-063-060800-
EAST-CENTRAL ILLINOIS

CITY           SKY/WX    TMP DP  RH WIND       PRES   REMARKS
CHAMPAIGN      CLEAR     66  64  93 S5        30.03S FOG
MATTOON          N/A     69  67  93 S3        30.02S FOG
$$

ILZ079-100>102-060800-
SOUTHWEST ILLINOIS

CITY           SKY/WX    TMP DP  RH WIND       PRES   REMARKS
BELLEVILLE     CLEAR     69  69  99 SE2       30.00R
CAHOKIA*       CLEAR     72  68  87 CALM      30.00S FOG
SPARTA*        CLEAR     71  67  87 SE3       30.02S
$$

ILZ064>066-069>071-074>076-080>082-084>086-088>090-092>094-060800-
SOUTH-CENTRAL ILLINOIS

CITY           SKY/WX    TMP DP  RH WIND       PRES   REMARKS
CARBONDALE     PTCLDY    70  68  93 SE3       30.02S FOG
MT. VERNON     CLEAR     64  61  88 CALM      30.03S
SALEM*         CLEAR     69  66  89 CALM      30.03S FOG
$$

ILZ067-068-072-073-078-083-087-091-060800-
SOUTHEAST ILLINOIS

CITY           SKY/WX    TMP DP  RH WIND       PRES   REMARKS
LAWRENCEVILLE  CLEAR     70  68  93 S3        30.03F FOG
HARRISBURG*    PTCLDY    66  66 100 CALM      30.03F FOG
CARMI*         CLEAR     68  64  85 CALM      30.02S FOG
$$

ABBREVIATIONS USED IN REMARKS
   TC - TEMPERATURE IN CELSIUS
  WCI - WIND CHILL INDEX
   HX - HEAT INDEX
  VSB - VISIBILITY
$$



USA.gov is the U.S. government's official web portal to all federal, state and local government web resources and services.